Location: Tauranga
(37.6860°S, 176.1670°E)
Time: 12:38:09
(UTC+13:00)

ERBS - Pass Details

Date: 24 January 2019
Orbit: 418 x 431 km, 57.0° (Epoch: 21 February)

Event Time Altitude Azimuth Distance (km) Brightness Sun altitude
Rises 22:30:53 0° 212° (SSW) 2,442 7.6 -19.6°
Reaches altitude 10° 22:33:17 10° 197° (SSW) 1,566 6.1 -19.9°
Maximum altitude 22:36:12 24° 141° (SE) 958 4.1 -20.3°
Enters shadow 22:36:34 24° 131° (SE) 969 4.0 -20.4°
